Location: Bailleul
(50.3375°N, 2.8513°E)
Time: 16:08:50
(UTC+00:00)

Exosat Rocket - Pass Details

Date: 19 April 2021
Orbit: 760 x 2515 km, 72.3° (Epoch: 06 May)

Event Time Altitude Azimuth Distance (km) Brightness Sun altitude
Rises 19:20:20 0° 332° (NNW) 4,327 8.3 -5.4°
Reaches altitude 10° 19:23:32 10° 335° (NNW) 3,108 7.5 -5.8°
Maximum altitude 19:30:28 72° 59° (ENE) 976 4.0 -6.8°
Drops below altitude 10° 19:35:42 10° 144° (SE) 2,378 5.5 -7.5°
Enters shadow 19:36:32 - 146° (SE) 2,705 5.8 -7.7°
